Northfield, Minnesota, United States (55057)
Lat: 44.46N, Lon: 93.16W
Wx Zone: MNZ077
Local Info
Past Weather Observations for Today

NOTE: This archive is for the closest National Weather Service station to Northfield. Information may differ from the station used for current weather conditions.

Click here for Long-term Archive

Time Weather Temperature Dewpoint Humidity Pressure Winds Precip Visibility
21:52
Mostly Cloudy
63°F / 17°C 55°F / 13°C 77% 30.12 in
(1020 mb)
N 3.5 mph
(N 6 kph)
- 10SM
21:31
Mostly Cloudy
64°F / 18°C 55°F / 13°C 73% 30.09 in
(1019 mb)
N 4.6 mph
(N 7 kph)
- 10SM
21:11
Partly Cloudy
64°F / 18°C 57°F / 14°C 78% 30.09 in
(1019 mb)
NE 4.6 mph
(NE 7 kph)
- 10SM
20:52
Clear
64°F / 18°C 55°F / 13°C 73% 30.09 in
(1019 mb)
NE 8.1 mph
(NE 13 kph)
- 10SM
20:31
Partly Cloudy
66°F / 19°C 57°F / 14°C 73% 30.09 in
(1019 mb)
NE 11.5 mph
(NE 19 kph)
- 10SM
20:11
Clear
66°F / 19°C 57°F / 14°C 73% 30.06 in
(1018 mb)
NE 13.8 mph
(NE 22 kph)
- 10SM
19:52
Partly Cloudy
68°F / 20°C 57°F / 14°C 69% 30.06 in
(1018 mb)
NE 10.4 mph
(NE 17 kph)
- 10SM
19:31
Overcast
70°F / 21°C 59°F / 15°C 69% 30.04 in
(1017 mb)
NE 15 mph
(NE 24 kph)
- 10SM
19:11
Overcast
70°F / 21°C 59°F / 15°C 69% 30.04 in
(1017 mb)
NE 13.8 mph
(NE 22 kph)
- 10SM
18:52
Mostly Cloudy
72°F / 22°C 59°F / 15°C 65% 30.04 in
(1017 mb)
N 12.7 mph
(N 20 kph)
- 10SM
18:31
Partly Cloudy
72°F / 22°C 59°F / 15°C 65% 30.01 in
(1016 mb)
N 11.5 mph
(N 19 kph)
- 10SM
18:12
Mostly Cloudy
73°F / 23°C 59°F / 15°C 61% 30.01 in
(1016 mb)
N 13.8 mph
(N 22 kph)
- 10SM
17:51
Mostly Cloudy
72°F / 22°C 59°F / 15°C 65% 30.01 in
(1016 mb)
N 11.5 mph
(N 19 kph)
- 10SM
17:31
Partly Cloudy
73°F / 23°C 57°F / 14°C 57% 30.01 in
(1016 mb)
N 10.4 mph
(N 17 kph)
- 10SM
17:12
Partly Cloudy
75°F / 24°C 59°F / 15°C 57% 29.98 in
(1015 mb)
N 16.1 mph
(N 26 kph)
- 10SM
16:51
Mostly Cloudy
75°F / 24°C 57°F / 14°C 54% 29.98 in
(1015 mb)
N 12.7 mph
(N 20 kph)
- 10SM
16:31
Partly Cloudy
75°F / 24°C 59°F / 15°C 57% 29.98 in
(1015 mb)
NNE 15 mph
(NNE 24 kph)
- 10SM
16:12
Mostly Cloudy
75°F / 24°C 59°F / 15°C 57% 29.95 in
(1014 mb)
NE 16.1 mph
(NE 26 kph)
- 10SM
15:51
Partly Cloudy
75°F / 24°C 59°F / 15°C 57% 29.95 in
(1014 mb)
N 13.8 mph
(N 22 kph)
- 10SM
15:31
Partly Cloudy
77°F / 25°C 59°F / 15°C 54% 29.95 in
(1014 mb)
NNW 10.4 mph
(NNW 17 kph)
- 10SM
15:11
Overcast
75°F / 24°C 57°F / 14°C 54% 29.95 in
(1014 mb)
NNW 15 mph
(NNW 24 kph)
- 10SM
14:51
Mostly Cloudy
79°F / 26°C 59°F / 15°C 51% 29.95 in
(1014 mb)
NNW 17.3 mph
(NNW 28 kph)
- 10SM
14:32
Mostly Cloudy
77°F / 25°C 57°F / 14°C 51% 29.95 in
(1014 mb)
NNW 17.3 mph
(NNW 28 kph)
- 10SM
14:11
Partly Cloudy
75°F / 24°C 57°F / 14°C 54% 29.95 in
(1014 mb)
NNW 17.3 mph
(NNW 28 kph)
- 10SM
13:51
Partly Cloudy
75°F / 24°C 57°F / 14°C 54% 29.92 in
(1013 mb)
NNW 18.4 mph
(NNW 30 kph)
- 10SM
13:32
Mostly Cloudy
73°F / 23°C 57°F / 14°C 57% 29.92 in
(1013 mb)
NW 17.3 mph
(NW 28 kph)
- 10SM
13:11
Partly Cloudy
75°F / 24°C 59°F / 15°C 57% 29.92 in
(1013 mb)
NNW 19.6 mph
(NNW 32 kph)
- 10SM
12:51
Partly Cloudy
75°F / 24°C 57°F / 14°C 54% 29.92 in
(1013 mb)
NW 18.4 mph
(NW 30 kph)
- 10SM
12:32
Mostly Cloudy
75°F / 24°C 57°F / 14°C 54% 29.92 in
(1013 mb)
NW 21.9 mph
(NW 35 kph)
- 10SM
12:11
Mostly Cloudy
72°F / 22°C 57°F / 14°C 61% 29.92 in
(1013 mb)
NW 19.6 mph
(NW 32 kph)
- 10SM
11:52
Mostly Cloudy
70°F / 21°C 61°F / 16°C 73% 29.92 in
(1013 mb)
NNW 12.7 mph
(NNW 20 kph)
- 10SM
11:31
Overcast
72°F / 22°C 55°F / 13°C 57% 29.92 in
(1013 mb)
N 17.3 mph
(N 28 kph)
- 10SM
11:11
Partly Cloudy
73°F / 23°C 55°F / 13°C 53% 29.89 in
(1012 mb)
NW 23 mph
(NW 37 kph)
- 10SM
10:52
Partly Cloudy
73°F / 23°C 57°F / 14°C 57% 29.89 in
(1012 mb)
NW 16.1 mph
(NW 26 kph)
- 10SM
10:31
Partly Cloudy
72°F / 22°C 57°F / 14°C 61% 29.89 in
(1012 mb)
NW 20.7 mph
(NW 33 kph)
- 10SM
10:11
Mostly Cloudy
70°F / 21°C 57°F / 14°C 64% 29.89 in
(1012 mb)
NW 18.4 mph
(NW 30 kph)
- 10SM
09:52
Partly Cloudy
72°F / 22°C 57°F / 14°C 61% 29.86 in
(1011 mb)
NW 20.7 mph
(NW 33 kph)
- 10SM
09:31
Mostly Cloudy
70°F / 21°C 55°F / 13°C 60% 29.86 in
(1011 mb)
NNW 20.7 mph
(NNW 33 kph)
- 10SM
09:11
Overcast
70°F / 21°C 55°F / 13°C 60% 29.86 in
(1011 mb)
NW 20.7 mph
(NW 33 kph)
- 10SM
08:51
Overcast
68°F / 20°C 57°F / 14°C 69% 29.86 in
(1011 mb)
NW 18.4 mph
(NW 30 kph)
- 10SM
08:31
Overcast
68°F / 20°C 57°F / 14°C 69% 29.83 in
(1010 mb)
WNW 13.8 mph
(WNW 22 kph)
- 10SM
08:11
Overcast
66°F / 19°C 57°F / 14°C 73% 29.83 in
(1010 mb)
WNW 17.3 mph
(WNW 28 kph)
- 10SM
07:52
Mostly Cloudy
68°F / 20°C 57°F / 14°C 69% 29.83 in
(1010 mb)
WNW 17.3 mph
(WNW 28 kph)
- 10SM
07:31
Partly Cloudy
68°F / 20°C 57°F / 14°C 69% 29.83 in
(1010 mb)
WNW 18.4 mph
(WNW 30 kph)
- 10SM
07:11
Partly Cloudy
66°F / 19°C 57°F / 14°C 73% 29.83 in
(1010 mb)
WNW 16.1 mph
(WNW 26 kph)
- 10SM
06:52
Clear
66°F / 19°C 57°F / 14°C 73% 29.83 in
(1010 mb)
WNW 16.1 mph
(WNW 26 kph)
- 10SM
06:31
Clear
64°F / 18°C 57°F / 14°C 78% 29.83 in
(1010 mb)
W 15 mph
(W 24 kph)
- 10SM
06:11
Clear
64°F / 18°C 57°F / 14°C 78% 29.8 in
(1009 mb)
W 10.4 mph
(W 17 kph)
- 10SM
05:52
Clear
64°F / 18°C 57°F / 14°C 78% 29.8 in
(1009 mb)
W 11.5 mph
(W 19 kph)
- 10SM
05:31
Clear
64°F / 18°C 57°F / 14°C 78% 29.8 in
(1009 mb)
W 10.4 mph
(W 17 kph)
- 10SM
05:11
Clear
64°F / 18°C 55°F / 13°C 73% 29.8 in
(1009 mb)
W 10.4 mph
(W 17 kph)
- 10SM
04:52
Clear
64°F / 18°C 55°F / 13°C 73% 29.8 in
(1009 mb)
W 11.5 mph
(W 19 kph)
- 10SM
04:31
Clear
64°F / 18°C 55°F / 13°C 73% 29.8 in
(1009 mb)
SSW 10.4 mph
(SSW 17 kph)
- 10SM
04:11
Clear
66°F / 19°C 57°F / 14°C 73% 29.8 in
(1009 mb)
W 11.5 mph
(W 19 kph)
- 10SM
03:52
Clear
66°F / 19°C 55°F / 13°C 68% 29.8 in
(1009 mb)
SSW 11.5 mph
(SSW 19 kph)
- 10SM
03:31
Clear
66°F / 19°C 57°F / 14°C 73% 29.8 in
(1009 mb)
W 9.2 mph
(W 15 kph)
- 10SM
03:11
Clear
64°F / 18°C 57°F / 14°C 78% 29.8 in
(1009 mb)
SSW 9.2 mph
(SSW 15 kph)
- 10SM
02:52
Clear
64°F / 18°C 57°F / 14°C 78% 29.8 in
(1009 mb)
SSW 5.8 mph
(SSW 9 kph)
- 10SM
02:31
Clear
66°F / 19°C 57°F / 14°C 73% 29.8 in
(1009 mb)
SSW 4.6 mph
(SSW 7 kph)
- 10SM
02:11
Clear
66°F / 19°C 59°F / 15°C 78% 29.8 in
(1009 mb)
SSW 5.8 mph
(SSW 9 kph)
- 10SM
01:52
Clear
68°F / 20°C 59°F / 15°C 73% 29.8 in
(1009 mb)
SSW 4.6 mph
(SSW 7 kph)
- 10SM
01:31
Clear
68°F / 20°C 59°F / 15°C 73% 29.8 in
(1009 mb)
W 4.6 mph
(W 7 kph)
- 10SM
01:11
Clear
68°F / 20°C 59°F / 15°C 73% 29.83 in
(1010 mb)
W 8.1 mph
(W 13 kph)
- 10SM
00:52
Clear
68°F / 20°C 61°F / 16°C 78% 29.83 in
(1010 mb)
W 6.9 mph
(W 11 kph)
- 10SM
00:31
Clear
70°F / 21°C 63°F / 17°C 78% 29.83 in
(1010 mb)
SSW 6.9 mph
(SSW 11 kph)
- 10SM
00:11
Clear
70°F / 21°C 63°F / 17°C 78% 29.83 in
(1010 mb)
W 6.9 mph
(W 11 kph)
- 10SM
Time Weather Temperature Dewpoint Humidity Pressure Winds Precip Visibility


Weather for websites

WeatherForYou.com, LLC is not responsible for any damages or problems caused by this service. Current weather conditions are obtained from the closest station including government and personal stations which may have varying degrees of accuracy. Weather forecasts are derived from the NOAA NDFD. Like all things, this site belongs to Jesus Christ... He just trusts me to maintain it. If you have any questions or comments email webmaster@weatherforyou.com

Copyright © 2014, WeatherForYou.com LLC. All rights reserved.